FW1247 Weather Reports


time (UTC)temp
F
wind
direction
speed
knots
gust
knots
rain 1hr
in
rain 24hr
in
rain mn
in
humidity
%
barometer
mb
20260505111512 63 344 3.5 8.7 0.00 0.00 0.00 54 1007.7
20260505101503 60 311 4.3 12.2 0.00 0.00 0.00 64 1008.0
20260505100059 58 302 5.2 9.6 0.00 0.00 0.00 68 1008.0
20260505094606 59 300 7.8 11.3 0.00 0.00 0.00 68 1008.1
20260505093057 57 299 6.1 12.2 0.00 0.00 0.00 70 1008.2
20260505091600 56 324 6.1 12.2 0.00 0.00 0.00 72 1008.1
20260505090100 58 325 7.8 13.0 0.00 0.00 0.00 70 1008.1
20260505084554 56 288 4.3 9.6 0.00 0.00 0.00 70 1008.1
20260505083054 57 286 6.1 11.3 0.00 0.00 0.00 74 1008.1
20260505081558 54 300 5.2 10.4 0.00 0.00 0.00 74 1008.1
20260505080049 54 318 7.8 12.2 0.00 0.00 0.00 75 1008.2
20260505074603 54 329 6.1 10.4 0.00 0.00 0.00 77 1008.1
20260505073040 53 319 4.3 9.6 0.00 0.00 0.00 79 1008.2
20260505071537 53 328 7.0 10.4 0.00 0.00 0.00 80 1008.2
20260505070033 52 334 4.3 8.7 0.00 0.00 0.00 81 1008.3
20260505064629 51 355 3.5 7.8 0.00 0.00 0.00 81 1008.3
20260505063034 51 281 2.6 8.7 0.00 0.00 0.00 82 1008.2
20260505061530 51 300 4.3 9.6 0.00 0.00 0.00 84 1008.3
20260505060021 50 350 1.7 4.3 0.00 0.00 0.00 86 1008.3
20260505054523 50 338 1.7 3.5 0.00 0.00 0.00 88 1008.3
20260505053013 49 328 0.0 3.5 0.00 0.00 0.00 89 1008.3
20260505051508 48 320 1.7 2.6 0.00 0.00 0.00 90 1008.2
20260505041502 46 331 0.9 2.6 0.00 0.00 0.00 91 1008.1
20260505040101 45 332 0.0 2.6 0.00 0.00 0.00 90 1008.1
20260505034558 45 332 0.9 3.5 0.00 0.00 0.00 90 1008.0
20260505033056 45 327 0.9 2.6 0.00 0.00 0.00 90 1007.9
20260505031601 45 328 1.7 4.3 0.00 0.00 0.00 90 1007.9
20260505030055 45 329 1.7 3.5 0.00 0.00 0.00 90 1008.0
20260505024607 45 336 0.9 3.5 0.00 0.00 0.00 91 1008.1
20260505023051 45 331 1.7 4.3 0.00 0.00 0.00 91 1008.1
20260505021606 45 333 1.7 2.6 0.00 0.00 0.00 91 1008.2
20260505020049 45 333 0.0 3.5 0.00 0.00 0.00 91 1008.3
20260505014549 45 320 2.6 5.2 0.00 0.00 0.00 91 1008.2
20260505013047 45 311 1.7 5.2 0.00 0.00 0.00 91 1008.2
20260505011552 44 286 2.6 3.5 0.00 0.00 0.00 89 1008.3
20260505010044 45 286 0.9 1.7 0.00 0.00 0.00 89 1008.3
20260505004544 46 286 0.0 0.0 0.00 0.00 0.00 89 1008.3
20260505003038 46 287 0.0 0.0 0.00 0.00 0.00 89 1008.3
20260505001537 46 286 0.0 0.0 0.00 0.00 0.00 88 1008.4
20260505000042 46 286 0.0 1.7 0.00 0.00 0.00 88 1008.3
20260504234535 46 286 0.9 2.6 0.00 0.00 0.00 87 1008.2
20260504233041 46 286 0.9 1.7 0.00 0.00 0.00 86 1008.2
20260504231532 47 286 0.9 3.5 0.00 0.00 0.00 85 1008.4
20260504230028 47 276 1.7 5.2 0.00 0.00 0.00 85 1008.6
20260504224525 48 267 0.0 1.7 0.00 0.00 0.00 86 1008.8
20260504223029 48 267 1.7 2.6 0.00 0.00 0.00 86 1008.8
20260504221530 48 271 0.9 2.6 0.00 0.00 0.00 87 1008.9
20260504220022 48 271 0.9 2.6 0.00 0.00 0.00 87 1008.8
20260504214517 49 272 0.0 0.9 0.00 0.00 0.00 87 1008.9
20260504213016 49 272 0.0 0.9 0.00 0.00 0.00 86 1009.0
20260504211513 50 272 0.0 1.7 0.00 0.00 0.00 85 1009.0
20260504210011 50 272 0.0 0.0 0.00 0.00 0.00 84 1008.9
20260504204515 51 272 0.0 0.9 0.00 0.00 0.00 84 1008.8
20260504203007 52 272 0.0 0.9 0.00 0.00 0.00 81 1008.8
20260504201505 52 272 0.0 1.7 0.00 0.00 0.00 80 1008.8
20260504200002 53 272 0.9 2.6 0.00 0.00 0.00 79 1008.8
20260504194503 53 272 1.7 2.6 0.00 0.00 0.00 76 1008.7
20260504193101 54 265 1.7 3.5 0.00 0.00 0.00 75 1008.6
20260504191558 54 266 0.0 2.6 0.00 0.00 0.00 74 1008.4
20260504190058 55 267 0.9 2.6 0.00 0.00 0.00 72 1008.5
20260504184600 56 279 2.6 6.1 0.00 0.00 0.00 71 1008.5
20260504183104 57 275 3.5 7.8 0.00 0.00 0.00 69 1008.3
20260504181556 58 276 4.3 7.8 0.00 0.00 0.00 68 1008.3
20260504180055 59 290 5.2 8.7 0.00 0.00 0.00 67 1008.2
20260504174554 59 277 2.6 10.4 0.00 0.00 0.00 68 1008.3
20260504173058 59 275 2.6 9.6 0.00 0.00 0.00 68 1008.2
20260504171557 60 278 6.1 11.3 0.00 0.00 0.00 66 1008.2